Regional Weather Roundup
Issued by NWS

Home | Current Version | Previous Version | Graphics & Text | Print | Product List | Glossary On
Versions: 1 2 3 4 5 6 7 8 9 10 11 12 13 14 15 16 17 18 19 20 21 22 23 24 25 26 27 28 29 30 31 32 33 34 35 36 37 38 39 40 41 42 43 44 45 46 47 48 49 50
000
ASUS43 KDTX 271501
RWRMI
MICHIGAN HOURLY REGIONAL WEATHER ROUNDUP
NATIONAL WEATHER SERVICE DETROIT/PONTIAC MI
1000 AM EST TUE JAN 27 2015

NOTE: "FAIR" INDICATES FEW OR NO CLOUDS BELOW 12,000 FEET WITH NO
SIGNIFICANT WEATHER AND/OR OBSTRUCTION TO VISIBILITY.

MIZ047>049-052>055-059>063-066>070-074>076-081>083-271600-
SOUTHEAST LOWER MICHIGAN

CITY           SKY/WX    TMP DP  RH WIND       PRES   REMARKS
ADRIAN         SUNNY     18  10  71 NE10      30.10R WCI   6
ALMA           PTSUNNY   18  13  79 NE7       30.14R WCI   9
ANN ARBOR      MOSUNNY   21  12  68 NE8       30.09R WCI  11
BAD AXE        FLURRIES  19  14  80 N9        30.12R WCI   8
CARO           FLURRIES  18  14  84 N6        30.11S WCI  10
DETROIT CITY   SUNNY     21   9  59 N7        30.10R WCI  12
DETROIT        MOSUNNY   20  11  68 N7        30.10S WCI  11
FLINT          SUNNY     19  10  68 N8        30.11R WCI   9
GROSSE ILE     SUNNY     18  12  79 N6        30.08S WCI   9
HILLSDALE      SUNNY     17  11  77 N5        30.07R WCI  10
HOWELL         MOSUNNY   16  12  85 N3        30.09S

CITY           SKY/WX    TMP DP  RH WIND       PRES   REMARKS
JACKSON        PTSUNNY   20  11  68 N6        30.09S WCI  12
LAMBERTVILLE   SUNNY     19  12  73 CALM      30.10S
LANSING        SUNNY     18  10  71 N5        30.13R WCI  11
LAPEER         FAIR      15  11  82 N5        30.10S WCI   8
MASON          SUNNY     16  10  75 N3        30.10R
MONROE         SUNNY     18  12  79 N7        30.08R WCI   8
MT. CLEMENS    MOSUNNY   17  11  76 N7        30.07R WCI   8
PONTIAC        MOSUNNY   17  10  74 N9        30.07R WCI   6
PORT HOPE        N/A     21  13  71 N15       30.12R WCI   8
PORT HURON     CLOUDY    19  14  79 NE10      30.09R WCI   8
TRI CITIES     SUNNY     19  12  74 N9        30.14S WCI   8
TROY           SUNNY     21  11  67 N7        30.11R WCI  12
SAGINAW HB     SUNNY     19  18  93 N6        30.13S WCI  11
$$
MIZ043>046-050>051-056>058-064>065-071>073-077>080-271600-
SOUTHWEST LOWER MICHIGAN

CITY           SKY/WX    TMP DP  RH WIND       PRES   REMARKS
BATTLE CREEK   SUNNY     20  11  68 NE7       30.11R WCI  11
BENTON HARBOR  SUNNY     22  13  68 NE8       30.13R WCI  12
BIG RAPIDS     SUNNY     16  11  83 CALM      30.14R
COLDWATER      MOSUNNY   19  12  76 NE10      30.10R WCI   7
FREMONT        FAIR      18   8  65 NE5       30.15R WCI  11
HOLLAND        SUNNY     21  12  68 E8        30.15R WCI  11
GRAND RAPIDS   PTSUNNY   19  11  70 NE7       30.14R WCI  10
IONIA          CLOUDY    19  11  71 NE6       30.13R WCI  11
KALAMAZOO      SUNNY     20  11  68 NE6       30.12R WCI  12
LUDINGTON      SUNNY     21  13  71 NE3       30.17S
MARSHALL       MOSUNNY   18  11  73 NE5       30.10R WCI  11
MOUNT PLEASANT CLOUDY    18  11  76 N8        30.14R WCI   8
MUSKEGON       MOSUNNY   20  11  68 E7        30.17R WCI  11
SOUTH HAVEN    SUNNY     22  13  70 NE9       30.14R WCI  12
$$
MIZ016>042-271600-
NORTHERN LOWER MICHIGAN

CITY           SKY/WX    TMP DP  RH WIND       PRES   REMARKS
ALPENA         SUNNY     15   6  67 NE12      30.19R WCI   2
BEAVER ISLAND  SUNNY     13   8  79 E5        30.21R WCI   5
BELLAIRE       SUNNY     12  10  88 CALM      30.20S
CADILLAC       FAIR      15  10  82 E7        30.11R WCI   5
CHARLEVOIX     SUNNY     17  11  78 E7        30.22S WCI   7
FRANKFORT      SUNNY     19  14  82 E3        30.18S
GAYLORD        MOSUNNY   14  10  84 NE7       30.13R WCI   4
GRAYLING       MOSUNNY   14  10  83 N7        30.15R WCI   4
HARBOR SPRINGS SUNNY     15   8  71 NE6       30.20R WCI   7
HOUGHTON LAKE  SUNNY     15   9  76 NE7       30.14R WCI   5
MANISTEE       SUNNY     18  10  73 E8        30.18S WCI   7
OSCODA         FLURRIES  19  13  75 N14       30.14S WCI   6
PELLSTON       SUNNY     12   6  77 N3        30.21R
ROGERS CITY    SUNNY     17   8  68 E8        30.21R WCI   6
TRAVERSE CITY  MOSUNNY   17  12  80 CALM      30.18R
$$
MIZ007>008-015-271600-
EASTERN UPPER MICHIGAN

CITY           SKY/WX    TMP DP  RH WIND       PRES   REMARKS
KINROSS        MOSUNNY    9   1  72 NE7       30.22R WCI  -3
MACKINAC ISLAN MOSUNNY   14   6  71 NE9       30.21R WCI   1
NEWBERRY       MOSUNNY    5  -2  72 E5        30.21R WCI  -4
S. S. MARIE    MOSUNNY    8  -3  61 E6        30.23R WCI  -2
MUNISING         N/A     12   2  64 S5        30.21R WCI   4
$$
MIZ004>006-011>014-085-271600-
CENTRAL UPPER MICHIGAN

CITY           SKY/WX    TMP DP  RH WIND       PRES   REMARKS
MANISTIQUE     MOSUNNY   10   4  77 CALM      30.22R
ESCANABA       CLOUDY    16  12  86 NE6       30.19R WCI   7
MENOMINEE      CLOUDY    21  19  93 NE7       30.18R WCI  13
SAWYER-GWINN   FOG       16  14  93 CALM      30.15R VSB 1/2
$$
MIZ001>003-009>011-084-271600-
WESTERN UPPER MICHIGAN

CITY           SKY/WX    TMP DP  RH WIND       PRES   REMARKS
IRON MOUNTAIN  CLOUDY    17  15  92 CALM      30.14R
HOUGHTON       SUNNY     16  13  88 S5        30.13R WCI   9
COPPER HARBOR    N/A     18  13  80 W5        30.16R WCI  11
IRONWOOD       CLOUDY    21  19  93 S3        30.09S
$$

ABBREVIATIONS USED IN REMARKS
   TC - TEMPERATURE IN CELSIUS
  WCI - WIND CHILL INDEX
   HX - HEAT INDEX
  VSB - VISIBILITY




USA.gov is the U.S. government's official web portal to all federal, state and local government web resources and services.